Flag for Germany Weather past 2 weeks in Neubrandenburg, Mecklenburg-Western Pomerania, Germany

Now
45 °F

Light rain. Overcast.


Feels Like: 41 °F
Forecast: 47 / 70 °F
Wind: 7 mph from Northeast

Location: Greifswald


UV Index: 0 (Low)

Visibility: 9 mi


Pressure: 30.22 "Hg

Humidity: 92%

Dew point: 43 °F

Location of NeubrandenburgLocation

Historic Weather in Neubrandenburg

°F

Neubrandenburg temperature yesterday

Maximum temperature yesterday: 50 °F (at 12:00 PM)
Minimum temperature yesterday: 45 °F (at 10:00 PM)
Average temperature yesterday: 48 °F

Past Weeks' High & Low Weather Summary

 TemperatureHumidityPressure
High61 °F (Apr 21, 1:00 PM)100% (Apr 12, 3:00 AM)30.45 "Hg (Apr 12, 3:00 AM)
Low33 °F (Apr 16, 6:00 AM)34% (Apr 17, 1:00 PM)29.57 "Hg (Apr 14, 9:00 AM)
Average48 °F81%30.02 "Hg
* Reported Apr 9 4:00 AM — Apr 24 4:00 AM, Neubrandenburg, Weather by CustomWeather, © 2014

Note: Actual official high and low records may vary slightly from our data, if they occured in-between our weather recording intervals... More about our weather records

Advertising

Historic Weather Conditions — Data for Previous 24 hours

 ConditionsComfort  
Time TempWeatherWind HumidityBarometerVisibility
4:00 AM
Apr 24
45 °FLight rain. Overcast.7 mph92%30.22 "Hg9 mi
3:00 AM45 °FLight rain. Overcast.8 mph89%30.22 "Hg16 mi
2:00 AM45 °FOvercast.8 mph89%30.23 "Hg19 mi
1:00 AM45 °FLight rain. Overcast.9 mph92%30.23 "Hg12 mi
12:00 AM46 °FOvercast.9 mph90%30.24 "Hg16 mi
10:00 PM
Apr 23
45 °FLight rain. Overcast.10 mph93%30.23 "Hg6 mi
9:00 PM46 °FOvercast.10 mph92%30.22 "Hg16 mi
8:00 PM46 °FLight rain. Overcast.12 mph93%30.22 "Hg5 mi
7:00 PM46 °FLight rain. Overcast.12 mph91%30.20 "Hg16 mi
6:00 PM47 °FOvercast.9 mph91%30.20 "Hg17 mi
5:00 PM48 °FLight rain. Low clouds.8 mph95%30.20 "Hg8 mi
4:00 PM48 °FLight rain. Low clouds.8 mph94%30.20 "Hg6 mi
3:00 PM49 °FLight rain. Low clouds.7 mph95%30.19 "Hg6 mi
2:00 PM50 °FLight rain. Low clouds.7 mph91%30.18 "Hg6 mi
1:00 PM49 °FLight rain. Low clouds.7 mph92%30.17 "Hg13 mi
12:00 PM50 °FLight rain. Overcast.7 mph90%30.17 "Hg13 mi
11:00 AM50 °FLight rain. Low clouds.7 mph90%30.16 "Hg14 mi
10:00 AM49 °FLight rain. Low clouds.7 mph94%30.14 "Hg8 mi
9:00 AM48 °FLow clouds.7 mph97%30.12 "Hg6 mi
8:00 AM48 °FRain. Low clouds.7 mph97%30.11 "Hg2 mi
7:00 AM48 °FRain. Low clouds.3 mph96%30.10 "Hg1 mi
6:00 AM48 °FLow clouds.5 mph92%30.08 "Hg7 mi
5:00 AM48 °FLight rain. Low clouds.5 mph93%30.07 "Hg6 mi
Weather by CustomWeather, © 2014

See weather overview